This is the latest recevied weather packets stored in our database for station/object KI5RAB. If no packets are shown the sender has not sent any weather packets the latest 10 day(s).
| Time | Temp. | Humidity | Pressure | Rain* | Wind** | Luminosity | Snow |
|---|---|---|---|---|---|---|---|
| 1777682783 | 14.44° C | 86% | 1017.5 hPa | 0 mm | - | 12 W/m² | - |
| 1777682480 | 15° C | 86% | 1017.3 hPa | 0 mm | - | 27 W/m² | - |
| 1777682178 | 14.44° C | 85% | 1017.4 hPa | 0 mm | - | 29 W/m² | - |
| 1777681875 | 15° C | 85% | 1017.3 hPa | 0 mm | - | 15 W/m² | - |
| 1777681571 | 15° C | 85% | 1017.2 hPa | 0 mm | - | 23 W/m² | - |
| 1777681269 | 15° C | 85% | 1017.2 hPa | 0 mm | - | 33 W/m² | - |
| 1777680966 | 15° C | 84% | 1017 hPa | 0 mm | - | 51 W/m² | - |
| 1777680663 | 15° C | 85% | 1016.9 hPa | 0 mm | - | 59 W/m² | - |
| 1777680362 | 15° C | 86% | 1016.8 hPa | 0 mm | - | 50 W/m² | - |
| 1777680058 | 15° C | 86% | 1016.9 hPa | 0 mm | - | 13 W/m² | - |
| 1777679754 | 15.56° C | 87% | 1016.7 hPa | 0 mm | - | 35 W/m² | - |
| 1777679450 | 15.56° C | 86% | 1016.5 hPa | 0 mm | - | 20 W/m² | - |
| 1777679146 | 15.56° C | 85% | 1016.3 hPa | 0 mm | - | 28 W/m² | - |
| 1777678844 | 15.56° C | 85% | 1016.3 hPa | 0 mm | - | 78 W/m² | - |
| 1777678542 | 15.56° C | 85% | 1016.2 hPa | 0 mm | - | 65 W/m² | - |
| 1777678238 | 15.56° C | 85% | 1016.1 hPa | 0 mm | - | 88 W/m² | - |
| 1777677935 | 15.56° C | 86% | 1016.2 hPa | 0 mm | - | 97 W/m² | - |
| 1777677632 | 16.11° C | 85% | 1015.9 hPa | 0 mm | - | 77 W/m² | - |
| 1777677330 | 16.11° C | 85% | 1015.8 hPa | 0 mm | - | 94 W/m² | - |
| 1777677028 | 16.11° C | 84% | 1015.6 hPa | 0 mm | - | 98 W/m² | - |
| 1777676727 | 16.11° C | 85% | 1015.5 hPa | 0 mm | - | 144 W/m² | - |
| 1777676424 | 16.11° C | 86% | 1015.2 hPa | 0 mm | - | 203 W/m² | - |
| 1777676121 | 16.11° C | 86% | 1015.2 hPa | 0 mm | - | 105 W/m² | - |
| 1777675816 | 16.11° C | 85% | 1015 hPa | 0 mm | - | 89 W/m² | - |
| 1777675509 | 16.67° C | 85% | 1015.4 hPa | 0 mm | - | 124 W/m² | - |
* Rain latest hour (hover to see other rain measurements)
** Current wind speed in m/s (hover to see current wind gust speed)